Notices

What's New in latest Release from April 7th, 2021:

- Updated Glossary, including Speed of Maximum Gust, and Total Hourly Precipitation

- Updated national and regional climate services offices contacts and prices information

- Addition of station inventory lists for 1981-2010, 1971-2000, and 1961-1990 Normals.

If you haven't already, please take our survey and provide feedback about our website: https://eccc.sondage-survey.ca/f/LanguageSelection.aspx?s=442ca660-fcf1-47c0-95a9-59707d6fd709

Hourly Data Report for November 24, 2020

SHEARWATER RCS
NOVA SCOTIA
Current Station Operator: ECCC - MSC

44°37'47.000" N
63°30'48.000" W
24.00 m
8205092
71264
AAW

Download Data

Hourly Data (November 2020)
Hourly Data Report for November 24, 2020
TIME
LST
Temp Definition
°C
Dew Point Definition
°C
Rel Hum Definition
%
Precip. Amount Definition
mm

Wind Dir Definition
10's deg

Wind Spd Definition
km/h
Visibility Definition
km
Stn Press Definition
kPa
Hmdx Definition


Wind Chill Definition


Weather Definition


00:00 12.8 12.2 96 9.0 23 11   99.45     LegendNANA
01:00 12.2 11.6 96 4.7 20 11   99.33     LegendNANA
02:00 8.2 6.7 90 0.0 31 18   99.39     LegendNANA
03:00 6.0 3.8 86 0.0 29 24   99.49     LegendNANA
04:00 4.5 1.7 82 0.0 29 25   99.59     LegendNANA
05:00 4.0 1.2 82 0.0 29 23   99.72     LegendNANA
06:00 3.6 0.5 80 0.0 28 21   99.80     LegendNANA
07:00 3.0 -0.3 79 0.0 29 24   99.89     LegendNANA
08:00 2.2 -2.2 73 0.0 29 29   100.08     LegendNANA
09:00 2.5 -3.4 65 0.0 28 27   100.22     LegendNANA
10:00 2.6 -3.3 65 0.0 29 28   100.34     LegendNANA
11:00 3.0 -3.8 61 0.0 29 29   100.44     LegendNANA
12:00 3.7 -3.7 58 0.0 30 32   100.55     LegendNANA
13:00 2.8 -4.4 59 0.0 28 28   100.68     LegendNANA
14:00 2.3 -4.6 60 0.0 30 26   100.80     LegendNANA
15:00 2.1 -5.6 57 0.0 30 27   100.95     LegendNANA
16:00 1.9 -6.2 55 0.0 29 27   101.12     LegendNANA
17:00 1.0 -7.0 55 0.0 29 27   101.33     LegendNANA
18:00 0.6 -6.6 59 0.0 30 28   101.56     LegendNANA
19:00 0.3 -7.1 57 0.0 30 24   101.75     LegendNANA
20:00 -0.3 -8.0 56 0.0 31 23   101.91   -6 LegendNANA
21:00 -0.7 -9.0 54 0.0 32 24   102.06   -7 LegendNANA
22:00 -1.5 -9.6 54 0.0 33 22   102.23   -7 LegendNANA
23:00 -2.2 -10.2 54 0.0 33 21   102.39   -8 LegendNANA

Notes on Data Quality.

Legend

  • E = Estimated
  • M = Missing
  • NA = Not Available*
  • [empty] = Indicates an unobserved value
Date modified: